Starlink 34230

operational
NORAD ID: 64137 Int'l Des: 2025-111 Owner: SPXS Country: US Constellation: starlink
LEOCIRCULAR

关于 Starlink 34230

正在加载描述...

实时位置

正在加载3D地球...

即将过境

高度历史

Altitude vs Time

uPlot chart will show altitude changes over time

两行轨道根数

1 64137U 25111Q 25353.83957213 .00027803 00000-0 93863-3 0 9999
2 64137 42.9969 168.6257 0002819 278.1262 81.9271 15.30164324 33255
Epoch: Dec 19, 2025 • Age: 15 hours

当前状态

高度 480.0 km
速度 7.63 km/s
星下点 42.00°N, 21.74°E
发射日期 May 24, 2025
运行时间 0.5 years
类型 internet

技术详情

分类 Payload
质量 575.00 kg
干质量 530.00 kg
总质量 575.00 kg
长度 0.30 m
直径 4.10 m
跨度 29.00 m
形状 Box + pan
制造商 SPXS
平台类型 Starlink V2MO
阶段状态 In Orbit
所有者/国家 SPXS/US

大型星座

Loading constellations...